Regional Weather Roundup
Issued by NWS Wakefield, VA

Home | Current Version | Previous Version | Graphics & Text | Print | Product List | Glossary On
Versions: 1 2 3 4 5 6 7 8 9 10 11 12 13 14 15 16 17 18 19 20 21 22 23 24 25 26 27 28 29 30 31 32 33 34 35 36 37 38 39 40 41 42 43 44 45 46 47 48 49 50
000
ASUS41 KAKQ 210014
RWRAKQ

REGIONAL WEATHER ROUNDUP
NATIONAL WEATHER SERVICE WAKEFIELD VA
800 PM EDT MON APR 20 2015

Note: "fair" indicates few or no clouds below 12,000 feet with no
significant weather and/or obstructions to visibility. * = Denotes
station may not report precipitation (e.g., rain,snow,etc.),
thunder or fog.

VAZ042-051-052>054-056-210100-
NORTHERN VIRGINIA

CITY           SKY/WX    TMP DP  RH WIND       PRES   REMARKS
WASH NATIONAL  MOCLDY    75  61  60 S15       29.50F THUNDER
DULLES         CLOUDY    67  49  52 SE8       29.47F THUNDER
FORT BELVOIR   TSTM      73  61  64 SW14      29.54R
QUANTICO       TSTM      67  56  67 S25       29.54R
FREDERICKSBRG* CLOUDY    77  60  55 S13G18    29.53R
STAFFORD*      TSTM      65  53  65 SW6G28    29.57R
WARRENTON      CLOUDY    71  59  64 S8        29.51S
CULPEPER*      CLOUDY    73  48  40 SW8       29.52R
MANASSAS*      MOCLDY    70  48  46 S6        29.49F
LEESBURG*      CLOUDY    75  54  46 S14G24    29.47F
WINCHESTER     MOCLDY    73  46  38 S10       29.46F
FRONT ROYAL*   FAIR      72  52  49 SW5       29.46F
LURAY*         FAIR      68  55  64 SW3       29.50F
$$

VAZ048-049-060>072-079>083-210100-
CENTRAL AND SOUTH CENTRAL VIRGINIA

CITY           SKY/WX    TMP DP  RH WIND       PRES   REMARKS
RICHMOND       CLOUDY    73  60  63 S18G28    29.59R
CHESTERFIELD*  NOT AVBL
PETERSBURG*    CLOUDY    71  61  71 S8        29.61S
HANOVER        CLOUDY    74  61  63 S16G23    29.59R
TAPPAHANNOCK*  CLOUDY    74  59  59 S9        29.58S
QUINTON*       FAIR      73  63  71 S7        29.60R
CHARLOTTSVILLE CLOUDY    65  52  62 CALM      29.53S
GORDONSVILLE*  FAIR      66  57  72 SW5       29.53R
ORANGE*        CLOUDY    70  54  56 S9G16     29.55R
LOUISA*        CLOUDY    68  57  68 CALM      29.54R
BUMPASS*       FAIR      73  60  63 S12G17    29.55R
FARMVILLE*     CLOUDY    75  56  51 S13       29.56R
CREWE*         CLOUDY    70  56  61 S9        29.59S
FORT PICKETT*  FAIR      65  58  77 S10       29.61S
CHASE CITY*    FAIR      68  67  96 SE5       29.62R
CLARKSVILLE*   FAIR      70  63  78 S13G18    29.61R
SOUTH HILL*    CLOUDY    69  61  75 S8        29.69R
LAWRENCEVILLE* FAIR      67  62  84 S3        29.63R
EMPORIA*       CLOUDY    63  59  88 SE3       29.66S
$$

VAZ088>098-210100-
SOUTHEAST VIRGINIA

CITY           SKY/WX    TMP DP  RH WIND       PRES   REMARKS
NORFOLK        CLOUDY    75  60  59 S16G22    29.64R
VIRGINIA BEACH CLOUDY    76  62  62 S9        29.65R
NORFOLK NAVAL  CLOUDY    79  61  53 S8        29.65R
WEST POINT*    CLOUDY    76  61  59 S10G16    29.61S
SALUDA*        FAIR      73  62  68 S9        29.60S
NEWPORT NEWS   LGT RAIN  78  62  57 S13G22    29.64R
LANGLEY AFB    CLOUDY    75  62  63 S14       29.62R
FORT EUSTIS    CLOUDY    74  61  65 S10G17    29.62R
WILLIAMSBURG*  CLOUDY    77  64  65 S9        29.64R
HR EXEC AP*    FAIR      75  61  60 S12       29.66S
FRANKLIN*      CLOUDY   N/A N/A N/A S6        29.65R
WAKEFIELD      CLOUDY    73  60  63 S6        29.63R
$$

VAZ020-022-025-037-045-210100-
WEST CENTRAL AND SOUTHWEST VIRGINIA

CITY           SKY/WX    TMP DP  RH WIND       PRES   REMARKS
STAUNTON*      CLOUDY    66  52  60 SW7       29.57R
WAYNESBORO*    FAIR      67  54  63 S8G18     29.57R
HOT SPRINGS VA CLOUDY    56  48  74 SW16G24   29.62F
LYNCHBURG      MOCLDY    68  57  68 S10       29.58R
DANVILLE       CLOUDY    71  55  56 SW8       29.60R
SOUTH BOSTON*  FAIR      69  60  72 S7        29.60R
MARTINSVILLE   PTCLDY    69  51  53 W7        29.64R
ROANOKE        MOCLDY    63  57  81 W5        29.59F
BLACKSBURG     CLOUDY    59  55  84 SW3       29.64S
DUBLIN*        LGT RAIN  61  59  94 SW6       29.63R
MARION*        MOCLDY    65  46  50 W20G28    29.66R
HILLSVILLE*    CLOUDY    55  53  91 SW8       29.66R
RICHLANDS*     MOCLDY    63  38  39 SW17G25   29.65R
WISE*          LGT RAIN  54  52  94 W15G22    29.72R
ABINGDON*      MOCLDY    66  42  40 W13G24    29.66R
$$

MDZ021>025-VAZ099-100-210100-
SOUTHERN MARYLAND AND THE DELMARVA PENINSULA

CITY           SKY/WX    TMP DP  RH WIND       PRES   REMARKS
PATUXENT RIVER CLOUDY    69  60  73 S10       29.56S
BAY BRIDGE APT   N/A    N/A N/A N/A SE8       29.55S
LEONARDTOWN    CLOUDY    72  59  64 S7        29.57F
DOVER          CLOUDY    71  64  80 S12       29.54F
GEORGETOWN     CLOUDY    69  62  78 S12G21    29.60S
EASTON         CLOUDY    73  63  68 S10       29.60S THUNDER
CAMBRIDGE      CLOUDY    72  59  64 S9G18     29.58R
SALISBURY      CLOUDY    67  60  78 S8        29.61R
OCEAN CITY     CLOUDY    58  55  90 SW10      29.64R
WALLOPS ISLAND CLOUDY    60  57  89 S16       29.63S
ACCOMACK*      CLOUDY    66  59  77 S13       29.63S
$$

NCZ012>017-030>032-210100-
NORTH CENTRAL AND EASTERN NORTH CAROLINA

CITY           SKY/WX    TMP DP  RH WIND       PRES   REMARKS
ROANOKE RAPIDS FAIR      72  63  73 S9        29.65R
RALEIGH        TSTM      65  60  84 SW8       29.69R
ELIZABETH CITY CLOUDY    72  64  76 S12G20    29.68R
AHOSKIE*       CLOUDY    72  60  66 S5        29.67R
EDENTON*       CLOUDY    72  65  77 S13       29.68S
CURRITUCK*     CLOUDY    74  63  70 S8        29.68S
KILL DEVIL HLS CLOUDY    70  64  81 SW8G20    29.69S
MANTEO         CLOUDY    70  65  83 SW22      29.71R
CAPE HATTERAS  CLOUDY    67  65  93 SW16G24   29.76R
TARBORO*       FAIR      74  62  64 S8        29.68R
GOLDSBORO      CLOUDY    73  65  76 S9        29.69R
WASHINGTON     CLOUDY    73  63  71 S8G17     29.70R
GREENVILLE     CLOUDY    73  61  64 SW13G23   29.72R
NEW BERN       CLOUDY    69  62  78 S10       29.74R
WILMINGTON     CLOUDY    69  64  84 S17G24    29.77R
$$

VAZ048-210100-
ELSEWHERE

CITY           SKY/WX    TMP DP  RH WIND       PRES   REMARKS
HARRISBURG PA  PTCLDY    64  58  80 SE5       29.47F
BALTIMORE      MOCLDY    68  62  81 SE7       29.52F
ANNAPOLIS      CLOUDY    68  59  73 S13       29.53F
ANDREWS AFB    MOCLDY    73  62  68 SE13      29.51F
PHILADELPHIA   MOCLDY    70  61  73 S12       29.57F
HENDERSON NC   CLOUDY    68  56  65 S21G26    29.64R
GREENSBORO     CLOUDY    67  52  58 SW18G30   29.62R
ROCKY MOUNT    CLOUDY    73  63  70 S13       29.67R
$$

VAZ100-210100-
MARINE

STATION/POSITION TIME  TEMP    WIND        PRES    WAVE   SWELL
                       AIR SEA DIR/SP/G            HT/PER HT/PER
                 (UTC) (F)     (DEG/KT/KT) (MB)    (FT/S) (FT/S)
BRANDYWINE LGT   2300   54 53  180/ 20/ 22 1002.3R
CAPE MAY NJ      2300   57 56  150/ 13/ 18 1002.3R
LEWES DE         2300   64 50  170/  7/ 10 1002.2R
15NM E FENWICK I 2350   52 47              1003.0F  10/ 9
OCEAN-CITY-INLET 2300   55 56  210/ 12/ 14 1003.1R
WACHAPREAGUE VA  2300   66 66  200/ 10/ 14 1003.5R
THOMAS POINT MD  0000   65 55  170/ 21/ 22 1000.9F
GOOSES REEF MD   0000   62 57  160/ 14/ 16   N/A     1/ 2
COVE POINT MD    2300   62     190/ 13/ 14 1000.8F
SOLOMONS ISLAND  2300      60                N/A
BISHOPS HEAD MD  2300   69 65  180/ 15/ 18 1001.4F
PINEY POINT MD   2312          200/ 14/ 15   N/A
CAMBRIDGE MD     2300   72 59  170/  5/  9 1001.2F
LEWISETTA VA     2300   73 65              1001.1F
RAPPAHANNOCK LGT 2300          170/ 17/ 18 1003.1F
STINGRAY PT      0000   63 58  170/ 12/ 14 1004.4S   1/ 3
YORK RVR RNG VA  2300   69     190/ 16/ 17 1002.3R
YORKTOWN VA      2300   75 62  190/  8/ 10 1002.4R
DOMINION TERM VA 2300   74     200/ 13/ 17 1003.4R
KIPTOPEKE VA     2300      62  180/ 11/ 13   N/A
CHES BAY BRIDGE  2300   73 59  170/ 13/ 17 1003.0R
CAPE HENRY VA    2300   76     180/ 10/ 17 1002.3F
CHESAPEAKE LGHT  2300   63     180/ 25/ 25 1003.9F
WILLOUBY STN VA  2300   76     190/ 18/ 21 1003.9R
S CRANEY ISL VA  2300          190/ 11/ 16 1003.5R
CAPE HENRY BUOY  2328      56                N/A     5/ 8
1ST LANDING BUOY 0000   69     190/ 12/ 14 1003.4R   4/ 5
OFFSHORE WE BUOY 2311      50                N/A     6/ 8   5/ 8
64NM E OF VA BCH 2350   61 57  200/ 17/ 19 1005.3R   8/ 8   7/ 8
DUCK PIER NC     2300   72 50  190/ 13/ 17 1004.1S
44056 DUCK FRF   2311      57                N/A     5/ 8   2/13
OREGON INLET NC  2300   69 68  190/ 21/ 24 1006.1F
HATTERAS NC      2300   70 68  190/ 11/ 15 1006.9F
DIAMOND SHLS NC  2350   74 74  200/ 19/ 23 1007.6F   5/ 8   3/ 8
CAPE LOOKOUT NC  0000   68     190/ 11/ 13 1007.6R
$$


USA.gov is the U.S. government's official web portal to all federal, state and local government web resources and services.